Tracking 30923 objects as of 1-Jul-2025
HD Live streaming from Space Station
objects crossing your sky now

COSMOS 2251 DEB

Track COSMOS 2251 DEB now!
10-day predictions


NORAD ID: 46430
Int'l Code: 1993-036BWS
Perigee: 666.3 km
Apogee: 808.5 km
Inclination: 73.9 °
Period: 99.4 minutes
Semi major axis: 7108 km
RCS: Unknown
Launch date: June 16, 1993
Source: Commonwealth of Independent States (former USSR) (CIS)
Launch site: PLESETSK MISSILE AND SPACE COMPLEX (PKMTR)

Note: This is SATELLITE DEBRIS
Your satellite tracking list
Your tracking list is empty




NASA's NSSDC Master Catalog

Two Line Element Set (TLE):
1 46430U 93036BWU 25181.61478134  .00003820  00000-0  96110-3 0  9992
2 46430  73.9151 308.6554 0099969 264.9559  94.0183 14.48590904772902
Source of the keplerian elements: AFSPC